Find Starlink 4208

NORAD ID: 52844 Int'l Des: 2022-062 Owner: SPXS Country: US Constellation: starlink operational
LEOCIRCULAR

Live-Position

3D-Globus wird geladen...

Über Starlink 4208

Beschreibung wird geladen...

Nächste Überflüge

Passes for default location (London). Set your location on the main map for personalized predictions.

Höhenverlauf

Loading altitude history...

Zweizeiliger Elementsatz

1 52844U 22062Q 26124.77450073 .00000015 00000-0 19000-4 0 9993
2 52844 53.2170 142.3470 0001095 81.5864 278.5253 15.08830352214252
Epoch: 4. Mai 2026 • Age: 10 hours

Aktueller Status

Höhe 541.7 km
Geschwindigkeit 7.59 km/s
Subsatellitenpunkt -6.41°S, 148.64°W
Startdatum 17. Juni 2022
Alter 3.8 years
Typ internet

Technische Details

Klassifizierung Payload
Masse 297.00 kg
Trockenmasse 275.00 kg
Gesamtmasse 297.00 kg
Länge 0.20 m
Durchmesser 2.80 m
Spannweite 9.00 m
Form Box + pan
Hersteller SPXS
Bus-Typ Starlink
Phasenstatus In Orbit
Besitzer/Staat SPXS/US

Most Searched